1497780000.09,44623,15.94,74296.8,7.83,5.67,4.97,0,*78
1497780001.31,44624,15.94,74298.3,7.81,5.89,5.11,0,*72
1497780002.53,44625,15.94,74300.3,7.81,5.89,5.11,0,*73
1497780003.75,44626,15.94,74300.0,7.81,5.93,5.19,0,*73
1497780004.96,44627,15.94,74298.8,7.83,6.33,5.45,0,*70
1497780006.18,44628,15.94,74292.3,7.83,6.13,5.45,0,*7D
1497780007.42,44629,15.94,74294.5,7.83,5.93,5.19,0,*7E
1497780008.62,44630,15.94,74292.0,7.83,5.63,4.81,0,*79
1497780009.88,44631,15.94,74294.0,7.83,5.55,4.75,0,*76
1497780011.13,44632,15.94,74300.3,7.83,5.77,4.75,0,*75
1497780012.35,44633,15.94,74292.3,7.83,5.01,4.19,0,*7F
1497780013.55,44634,15.94,74296.3,7.83,5.67,4.81,0,*79
1497780014.79,44635,15.94,74298.3,7.83,5.93,5.19,0,*73
1497780016.01,44636,15.94,74294.8,7.83,6.03,5.23,0,*73
1497780017.26,44637,15.94,74296.0,7.83,6.69,5.93,0,*75
1497780018.47,44638,15.94,74298.5,7.85,5.33,4.63,0,*7E
1497780019.68,44639,15.94,74296.3,7.85,4.57,3.71,0,*78
1497780020.91,44640,15.94,74296.8,7.83,4.19,3.41,0,*79
1497780022.09,44641,15.94,74294.3,7.81,4.85,4.15,0,*79
1497780023.32,44642,16.0,74298.0,7.83,5.71,4.97,0,*78
1497780024.51,44643,15.94,74300.0,7.81,6.25,5.45,0,*77
1497780025.71,44644,15.94,74296.5,7.81,4.85,4.05,0,*7D
1497780026.93,44645,15.94,74296.8,7.81,5.19,4.31,0,*7F
1497780028.16,44646,15.94,74294.5,7.81,5.55,4.75,0,*74
1497780029.36,44647,16.0,74302.0,7.79,4.93,4.07,0,*7C
1497780030.57,44648,15.94,74300.0,7.77,4.19,3.25,0,*78
1497780031.8,44649,15.94,74298.3,7.77,3.59,2.89,0,*7D
1497780033.02,44650,16.0,74302.3,7.77,4.23,3.37,0,*7B
1497780034.23,44651,16.0,74304.0,7.75,4.57,3.75,0,*7D
1497780035.45,44652,15.94,74298.8,7.73,4.07,3.23,0,*7E
1497780036.69,44653,15.94,74298.8,7.73,3.79,2.85,0,*7C
1497780037.93,44654,15.94,74292.0,7.67,3.75,2.81,0,*76
1497780039.13,44655,15.94,74302.3,7.67,4.93,4.23,0,*76
1497780040.33,44656,15.94,74304.0,7.67,5.05,4.23,0,*7B
1497780041.56,44657,15.94,74302.0,7.67,4.59,3.75,0,*76
1497780042.75,44658,15.94,74300.3,7.67,4.81,4.01,0,*78
1497780043.95,44659,15.94,74296.3,7.65,4.81,4.07,0,*7D
1497780045.15,44660,15.94,74302.5,7.65,4.89,4.19,0,*70
1497780046.32,44661,15.94,74304.5,7.63,5.45,4.53,0,*78
1497780047.55,44662,15.94,74300.8,7.65,5.71,4.93,0,*76
1497780048.76,44663,15.94,74304.5,7.67,5.89,5.15,0,*7D
1497780049.93,44664,15.94,74296.0,7.67,5.07,4.27,0,*7C
1497780051.12,44665,16.0,74292.3,7.67,4.57,3.67,0,*7A
1497780052.33,44666,16.0,74294.3,7.67,3.89,3.07,0,*7B
1497780053.53,44667,15.94,74294.3,7.63,3.29,2.39,0,*78
1497780054.73,44668,16.0,74302.3,7.63,4.01,3.25,0,*76
1497780055.93,44669,15.94,74300.5,7.61,3.25,2.35,0,*74
1497780057.14,44670,16.0,74304.8,7.59,4.27,3.49,0,*78
1497780058.31,44671,15.94,74300.0,7.59,4.19,3.25,0,*7E
1497780059.52,44672,16.0,74302.5,7.55,2.65,1.63,0,*7C
1497780060.73,44673,15.94,74296.8,7.55,3.03,2.27,0,*7F
1497780061.94,44674,15.94,74298.3,7.51,4.07,3.15,0,*7F
1497780063.19,44675,16.0,74304.0,7.53,4.79,4.01,0,*77
1497780064.42,44676,15.94,74302.5,7.53,4.93,4.11,0,*71
1497780065.63,44677,15.94,74296.3,7.51,4.53,3.71,0,*7F
1497780066.81,44678,15.94,74290.3,7.51,5.19,4.53,0,*78
1497780067.99,44679,15.94,74290.0,7.51,5.67,4.89,0,*77
1497780069.23,44680,15.94,74292.0,7.53,6.03,5.27,0,*77
1497780070.44,44681,16.0,74292.5,7.53,6.11,5.37,0,*74
1497780071.66,44682,16.0,74290.0,7.55,6.03,5.27,0,*73
1497780072.89,44683,15.94,74282.5,7.59,6.57,5.81,0,*73
1497780074.06,44684,15.94,74282.5,7.59,5.45,4.53,0,*7A
1497780075.27,44685,16.0,74288.8,7.59,5.59,4.97,0,*7E
1497780076.44,44686,16.0,74290.3,7.63,5.37,4.57,0,*70
1497780077.66,44687,16.0,74286.0,7.61,5.99,5.23,0,*75
1497780078.86,44688,16.0,74294.8,7.61,5.33,4.53,0,*7C
1497780080.1,44689,16.0,74284.8,7.61,5.89,5.19,0,*73
1497780081.34,44690,15.94,74290.5,7.61,4.53,3.71,0,*75
1497780082.54,44691,15.94,74284.0,7.61,4.89,4.07,0,*75
1497780083.77,44692,15.94,74280.3,7.61,5.45,4.63,0,*75
1497780084.99,44693,15.94,74284.5,7.59,5.55,4.79,0,*75
1497780086.2,44694,16.0,74304.0,7.61,5.67,4.85,0,*7B
1497780087.44,44695,15.94,74300.8,7.61,5.59,4.75,0,*78
1497780088.65,44696,16.0,74304.5,7.61,5.23,4.41,0,*71
1497780089.88,44697,15.94,74296.3,7.61,3.71,2.95,0,*7E
1497780091.11,44698,16.0,74292.8,7.61,4.85,4.05,0,*72
1497780092.28,44699,16.0,74288.5,7.59,5.59,4.85,0,*70
1497780093.54,44700,16.0,74294.5,7.61,4.79,4.05,0,*71
1497780094.74,44701,15.94,74294.5,7.59,5.01,4.19,0,*78
1497780095.94,44702,16.0,74302.3,7.59,5.33,4.59,0,*7E
1497780097.16,44703,16.0,74310.3,7.57,5.27,4.45,0,*79
1497780098.36,44704,16.0,74300.3,7.59,5.11,4.31,0,*76
1497780099.55,44705,16.0,74296.8,7.59,5.19,4.37,0,*79
1497780100.76,44706,16.0,74298.8,7.59,5.67,4.97,0,*79
1497780101.96,44707,16.0,74296.3,7.59,5.49,4.79,0,*74
1497780103.17,44708,16.0,74292.3,7.59,6.39,5.67,0,*71
1497780104.38,44709,16.0,74290.5,7.61,6.25,5.49,0,*7A
1497780105.59,44710,16.0,74298.5,7.61,5.99,5.33,0,*7B
1497780106.8,44711,16.0,74288.0,7.61,5.33,4.53,0,*7D
1497780108.01,44712,16.0,74294.8,7.61,5.19,4.37,0,*74
1497780109.21,44713,15.94,74296.8,7.63,5.85,5.15,0,*73
1497780110.4,44714,15.94,74302.0,7.63,6.21,5.59,0,*71
1497780111.62,44715,16.0,74300.5,7.63,5.51,4.67,0,*78
1497780112.83,44716,16.0,74296.8,7.63,4.19,3.41,0,*75
1497780114.04,44717,16.0,74296.3,7.61,4.37,3.55,0,*7F
1497780115.23,44718,16.0,74294.5,7.59,4.49,3.79,0,*7C
1497780116.4,44719,15.94,74294.5,7.59,5.45,4.53,0,*7F
1497780117.63,44720,16.0,74298.8,7.57,4.97,4.15,0,*77
1497780118.85,44721,15.94,74296.3,7.57,5.55,4.81,0,*74
1497780120.07,44722,16.0,74300.5,7.57,5.27,4.45,0,*7A
1497780121.32,44723,16.0,74296.0,7.57,4.93,4.01,0,*75
1497780122.54,44724,15.94,74292.0,7.57,5.05,4.15,0,*79
1497780123.75,44725,15.94,74292.8,7.57,5.37,4.57,0,*7F
1497780124.96,44726,15.94,74288.3,7.55,5.01,4.07,0,*7E
1497780126.15,44727,16.0,74292.8,7.57,4.45,3.63,0,*79
1497780127.36,44728,16.0,74298.5,7.55,4.23,3.49,0,*7C
1497780128.57,44729,16.0,74292.3,7.55,4.67,3.85,0,*7D
1497780129.79,44730,15.94,74288.5,7.55,4.79,3.97,0,*79
1497780131.05,44731,16.0,74294.0,7.53,3.97,3.15,0,*73
1497780132.26,44732,16.0,74294.0,7.51,4.79,3.93,0,*7B
1497780133.44,44733,16.0,74292.5,7.51,4.85,3.93,0,*79
1497780134.64,44734,15.94,74290.5,7.51,4.53,3.71,0,*79
1497780135.85,44735,16.0,74294.5,7.51,4.27,3.45,0,*7C
1497780137.1,44736,16.0,74290.8,7.47,3.79,2.85,0,*79
1497780138.33,44737,16.0,74294.8,7.47,3.75,2.95,0,*75
1497780139.56,44738,16.0,74298.0,7.43,3.59,2.81,0,*75
1497780140.76,44739,15.94,74294.3,7.41,3.89,3.19,0,*7B
1497780141.96,44740,15.94,74298.0,7.41,4.41,3.71,0,*78
1497780143.21,44741,16.0,74296.3,7.39,3.15,2.21,0,*74
1497780144.45,44742,16.0,74298.5,7.37,3.41,2.73,0,*7F
1497780145.65,44743,16.0,74298.0,7.37,3.79,2.99,0,*71
1497780146.86,44744,15.94,74296.5,7.35,3.89,2.99,0,*7B
1497780148.09,44745,16.0,74300.3,7.35,3.45,2.61,0,*7D
1497780149.31,44746,16.0,74298.3,7.33,4.01,3.19,0,*71
1497780150.52,44747,16.0,74298.5,7.33,4.01,3.29,0,*73
1497780151.73,44748,16.0,74298.5,7.29,3.85,3.15,0,*73
1497780152.96,44749,16.0,74298.8,7.31,4.07,3.37,0,*76
1497780154.16,44750,16.0,74298.8,7.29,4.53,3.75,0,*70
1497780155.34,44751,15.94,74296.8,7.29,4.33,3.63,0,*70
1497780156.54,44752,16.0,74302.8,7.29,4.85,3.97,0,*75
1497780157.75,44753,15.94,74296.3,7.27,4.53,3.81,0,*76
1497780158.96,44754,16.0,74296.0,7.27,4.53,3.81,0,*71
1497780160.17,44755,16.0,74302.3,7.29,4.27,3.49,0,*79
1497780161.34,44756,16.0,74300.8,7.29,4.57,3.85,0,*7D
1497780162.55,44757,16.0,74302.8,7.29,3.85,3.03,0,*7A
1497780163.78,44758,16.0,74302.8,7.27,4.31,3.59,0,*7C
1497780165.01,44759,16.0,74300.8,7.27,4.63,3.81,0,*7F
1497780166.2,44760,16.0,74298.0,7.25,4.49,3.67,0,*77
1497780167.41,44761,16.0,74302.5,7.25,3.89,3.11,0,*7C
1497780168.59,44762,16.0,74304.8,7.25,5.07,4.37,0,*7C
1497780169.8,44763,16.0,74306.3,7.27,4.53,3.81,0,*75
1497780171.0,44764,16.0,74308.3,7.25,4.93,4.37,0,*76
1497780172.21,44765,16.0,74306.0,7.25,4.63,3.81,0,*72
1497780173.41,44766,16.0,74308.8,7.25,3.59,2.73,0,*73
1497780174.62,44767,16.0,74310.8,7.21,3.63,2.81,0,*72
1497780175.84,44768,16.0,74310.5,7.19,3.81,3.11,0,*72
1497780177.07,44769,16.0,74306.8,7.19,3.85,3.03,0,*74
1497780178.33,44770,15.94,74300.0,7.19,4.05,3.33,0,*70
1497780179.53,44771,16.0,74302.5,7.17,3.93,3.23,0,*76
1497780180.75,44772,15.94,74302.5,7.17,4.75,3.97,0,*75
1497780181.98,44773,16.0,74302.8,7.19,4.85,4.31,0,*7E
1497780183.23,44774,16.0,74300.3,7.19,4.79,4.05,0,*7D
1497780184.46,44775,16.0,74304.0,7.19,4.63,3.93,0,*7F
1497780185.69,44776,15.94,74302.3,7.17,4.97,4.31,0,*76
1497780186.89,44777,16.0,74304.3,7.19,4.85,4.15,0,*7C
1497780188.08,44778,16.0,74306.8,7.19,4.57,3.85,0,*72
1497780189.29,44779,16.0,74306.0,7.19,4.57,3.81,0,*77
1497780190.49,44780,16.0,74304.5,7.19,4.57,3.93,0,*72
1497780191.69,44781,16.0,74304.5,7.19,4.45,3.81,0,*73
1497780192.92,44782,16.0,74304.0,7.19,5.23,4.63,0,*7A
1497780194.17,44783,16.0,74302.0,7.19,4.75,4.05,0,*79
1497780195.39,44784,16.0,74302.0,7.19,3.85,3.23,0,*75
1497780196.62,44785,16.0,74300.8,7.19,4.15,3.49,0,*76
1497780197.82,44786,16.0,74296.3,7.17,3.81,3.11,0,*7C
1497780199.0,44787,16.0,74298.5,7.17,5.07,4.53,0,*74
1497780200.23,44788,16.0,74300.8,7.19,5.05,4.41,0,*74
1497780201.48,44789,16.0,74300.3,7.19,5.27,4.67,0,*71
1497780202.68,44790,16.0,74298.0,7.21,5.15,4.59,0,*7E
1497780203.91,44791,16.0,74298.3,7.19,4.63,3.89,0,*7E
1497780205.13,44792,16.0,74296.5,7.19,4.85,4.31,0,*71
1497780206.36,44793,16.0,74298.0,7.19,4.07,3.37,0,*7B
1497780207.61,44794,16.0,74298.5,7.19,4.63,4.05,0,*78
1497780208.84,44795,16.0,74294.5,7.19,4.31,3.63,0,*79
1497780210.01,44796,16.0,74294.8,7.21,5.07,4.49,0,*7A
1497780211.22,44797,16.0,74294.8,7.21,5.49,4.93,0,*76
1497780212.45,44798,16.0,74300.8,7.19,5.01,4.45,0,*75
1497780213.65,44799,16.0,74320.5,7.21,4.45,3.71,0,*7E
1497780214.9,44800,16.0,74310.3,7.19,3.53,2.89,0,*7C
1497780216.13,44801,16.0,74286.5,7.19,3.37,2.65,0,*7D
1497780217.31,44802,16.0,74286.5,7.17,4.19,3.55,0,*79
1497780218.56,44803,16.0,74288.8,7.15,3.49,2.85,0,*74
1497780219.74,44804,16.0,74296.0,7.17,4.53,3.93,0,*7B
1497780220.97,44805,16.0,74298.8,7.15,4.93,4.37,0,*7D
1497780222.17,44806,16.0,74300.3,7.17,5.27,4.85,0,*7B
1497780223.37,44807,16.0,74302.3,7.17,5.49,5.05,0,*7B
1497780224.58,44808,16.0,74296.0,7.21,5.37,5.01,0,*7C
1497780225.81,44809,16.0,74300.8,7.19,4.97,4.45,0,*7C
1497780227.06,44810,16.0,74300.8,7.19,5.05,4.67,0,*7E
1497780228.27,44811,16.0,74296.5,7.25,4.97,4.53,0,*7D
1497780229.45,44812,16.0,74294.5,7.25,4.85,4.41,0,*7E
1497780230.65,44813,16.0,74304.0,7.25,5.29,4.97,0,*73
1497780231.85,44814,16.0,74310.8,7.25,4.63,4.27,0,*70
1497780233.07,44815,16.0,74304.3,7.27,4.23,3.79,0,*7B
1497780234.25,44816,16.0,74306.8,7.25,5.19,4.85,0,*76
1497780235.48,44817,16.0,74308.0,7.27,5.55,5.19,0,*79
1497780236.69,44818,16.0,74300.8,7.25,4.97,4.53,0,*74
1497780237.94,44819,16.0,74308.5,7.27,4.01,3.33,0,*79
1497780239.2,44820,16.0,74306.8,7.27,3.79,3.33,0,*7B
1497780240.43,44821,16.0,74308.3,7.27,5.11,4.71,0,*73
1497780241.67,44822,16.0,74304.8,7.27,5.11,4.75,0,*74
1497780242.87,44823,16.0,74306.0,7.25,4.93,4.53,0,*78
1497780244.05,44824,16.0,74298.8,7.25,4.85,4.53,0,*78
1497780245.29,44825,16.0,74302.0,7.27,5.11,4.75,0,*73
1497780246.51,44826,16.0,74304.0,7.27,4.75,4.27,0,*74
1497780247.71,44827,16.0,74300.3,7.29,4.67,4.15,0,*79
1497780248.89,44828,16.0,74300.5,7.29,3.85,3.25,0,*79
1497780250.1,44829,16.0,74302.0,7.25,3.79,3.29,0,*7B
1497780251.3,44830,16.0,74298.8,7.27,4.41,3.89,0,*77
1497780252.5,44831,16.0,74300.0,7.25,4.49,4.01,0,*7B
1497780253.73,44832,16.0,74300.8,7.27,4.97,4.53,0,*7E
1497780254.91,44833,16.0,74302.3,7.25,4.37,3.81,0,*7F
1497780256.12,44834,16.0,74306.3,7.27,4.37,3.81,0,*7A
1497780257.33,44835,16.0,74304.5,7.27,4.37,3.81,0,*7B
1497780258.54,44836,16.0,74304.0,7.25,5.07,4.63,0,*73
1497780259.73,44837,16.0,74306.3,7.25,4.63,4.11,0,*74
1497780260.96,44838,16.0,74300.0,7.25,4.01,3.45,0,*79
1497780262.17,44839,16.0,74302.0,7.25,3.71,3.29,0,*72
1497780263.4,44840,16.0,74306.8,7.25,5.05,4.63,0,*70
1497780264.6,44841,16.0,74306.3,7.25,4.41,4.01,0,*74
1497780265.8,44842,16.0,74310.5,7.25,4.15,3.79,0,*7E
1497780266.99,44843,16.0,74310.5,7.25,4.37,3.93,0,*7B
1497780268.15,44844,16.0,74308.5,7.25,4.49,4.11,0,*78
1497780269.38,44845,16.0,74306.0,7.25,4.97,4.59,0,*76
1497780270.58,44846,16.0,74306.3,7.25,4.49,4.01,0,*7B
1497780271.76,44847,16.0,74300.5,7.25,4.37,3.89,0,*74
1497780272.96,44848,16.0,74298.5,7.25,4.63,4.23,0,*7D
1497780274.17,44849,16.0,74300.8,7.27,4.41,3.89,0,*79
1497780275.33,44850,16.0,74300.3,7.25,4.49,4.11,0,*7D
1497780276.56,44851,16.0,74302.8,7.27,5.11,4.63,0,*77
1497780277.8,44852,16.0,74296.8,7.27,4.75,4.37,0,*76
1497780279.0,44853,16.0,74294.8,7.25,5.33,4.97,0,*7C
1497780280.23,44854,16.0,74292.0,7.27,4.53,4.01,0,*71
1497780281.46,44855,16.0,74288.5,7.27,3.89,3.53,0,*70
1497780282.66,44856,16.0,74292.8,7.27,4.85,4.49,0,*74
1497780283.86,44857,16.0,74300.3,7.29,4.53,3.97,0,*74
1497780285.09,44858,16.0,74298.8,7.27,4.49,4.05,0,*72
1497780286.29,44859,16.0,74298.8,7.27,4.23,3.81,0,*74
1497780287.54,44860,16.0,74296.8,7.27,4.63,3.53,0,*75
1497780288.77,44861,16.0,74294.5,7.25,2.47,2.05,0,*74
1497780290.0,44862,16.0,74298.5,7.25,3.07,2.73,0,*73
1497780291.19,44863,16.0,74302.8,7.21,4.57,4.33,0,*76
1497780292.41,44864,16.0,74300.3,7.19,3.63,3.23,0,*7C
1497780293.61,44865,16.0,74300.8,7.21,4.89,4.59,0,*7F
1497780294.81,44866,16.0,74298.0,7.19,5.37,5.15,0,*7A
1497780295.99,44867,16.0,74294.3,7.21,5.71,5.29,0,*7D
1497780297.17,44868,16.0,74288.8,7.25,5.67,5.33,0,*7A
1497780298.4,44869,16.0,74294.5,7.27,5.41,4.97,0,*72
1497780299.61,44870,16.0,74298.0,7.29,5.11,4.75,0,*7D
1497780300.82,44871,16.0,74300.3,7.29,4.63,4.41,0,*7F
1497780302.0,44872,16.0,74292.5,7.29,4.85,4.45,0,*70
1497780303.2,44873,16.0,74300.5,7.31,4.19,3.81,0,*72
1497780304.41,44874,16.0,74300.0,7.29,4.79,4.45,0,*75
1497780305.64,44875,16.0,74304.3,7.29,4.63,4.31,0,*7C
1497780306.87,44876,16.0,74300.8,7.27,4.93,4.49,0,*71
1497780308.07,44877,16.0,74306.5,7.27,4.85,4.53,0,*7C
1497780309.25,44878,16.0,74296.3,7.29,4.19,3.81,0,*70
1497780310.45,44879,16.0,74296.0,7.29,4.63,4.27,0,*77
1497780311.69,44880,16.0,74296.3,7.29,5.01,4.79,0,*7F
1497780312.95,44881,16.0,74290.5,7.27,5.05,4.63,0,*7F
1497780314.18,44882,16.0,74290.3,7.31,5.11,4.79,0,*75
1497780315.38,44883,16.0,74288.5,7.31,5.45,5.07,0,*7D
1497780316.64,44884,16.0,74292.5,7.31,5.01,4.75,0,*7E
1497780317.84,44885,16.0,74286.3,7.31,5.33,4.89,0,*7D
1497780319.08,44886,16.0,74292.0,7.31,5.27,4.97,0,*74
1497780320.3,44887,16.0,74302.8,7.35,5.63,5.23,0,*7F
1497780321.48,44888,16.0,74296.8,7.33,4.11,3.85,0,*78
1497780322.72,44889,16.0,74306.0,7.33,3.75,3.41,0,*74
1497780323.89,44890,16.0,74310.3,7.33,4.33,3.85,0,*71
1497780325.12,44891,16.0,74302.8,7.31,3.37,2.99,0,*7D
1497780326.33,44892,16.0,74306.5,7.29,3.25,2.89,0,*75
1497780327.53,44893,16.0,74306.3,7.29,3.97,3.59,0,*71
1497780328.73,44894,16.0,74306.3,7.29,3.63,3.23,0,*70
1497780329.93,44895,16.0,74296.5,7.27,4.23,3.81,0,*74
1497780331.15,44896,16.0,74296.5,7.27,4.37,3.93,0,*71
1497780332.34,44897,16.0,74292.8,7.27,4.49,4.11,0,*74
1497780333.53,44898,16.0,74294.3,7.27,4.49,4.11,0,*7B
1497780334.76,44899,16.0,74302.5,7.27,4.75,4.37,0,*71
1497780336.0,44900,16.0,74304.0,7.27,4.63,4.37,0,*77
1497780337.22,44901,16.0,74302.0,7.27,4.75,4.27,0,*70
1497780338.43,44902,16.0,74298.8,7.27,4.15,3.81,0,*7E
1497780339.64,44903,16.0,74302.5,7.25,3.67,2.99,0,*77
1497780340.84,44904,16.0,74302.0,7.25,2.99,2.51,0,*74
1497780342.07,44905,16.0,74314.5,7.25,3.79,3.19,0,*77
1497780343.27,44906,16.0,74304.3,7.19,4.33,3.93,0,*70
1497780344.45,44907,16.0,74306.5,7.21,4.33,3.85,0,*7D
1497780345.66,44908,16.0,74302.3,7.21,4.97,4.45,0,*77
1497780346.84,44909,16.0,74300.3,7.21,4.89,4.45,0,*79
1497780348.05,44910,16.0,74304.3,7.25,5.41,4.97,0,*7F
1497780349.25,44911,16.0,74300.5,7.25,5.33,5.05,0,*71
1497780350.44,44912,16.0,74300.0,7.27,5.29,4.81,0,*76
1497780351.67,44913,16.0,74298.5,7.27,5.51,5.11,0,*70
1497780352.88,44914,16.0,74300.3,7.29,5.11,4.75,0,*7E
1497780354.09,44915,16.0,74298.0,7.27,4.37,3.89,0,*70
1497780355.27,44916,16.0,74302.3,7.29,4.53,4.15,0,*7D
1497780356.48,44917,16.0,74296.8,7.29,5.15,4.79,0,*75
1497780357.71,44918,16.0,74296.0,7.29,4.67,4.31,0,*72
1497780358.96,44919,16.0,74298.5,7.31,4.67,4.31,0,*7A
1497780360.17,44920,16.0,74298.8,7.29,4.41,3.97,0,*76
1497780361.37,44921,16.0,74298.0,7.29,4.79,4.45,0,*74
1497780362.54,44922,16.0,74298.5,7.29,4.57,4.19,0,*72
1497780363.72,44923,16.0,74304.3,7.29,4.53,4.15,0,*7B
1497780364.91,44924,16.0,74308.5,7.29,4.45,3.93,0,*72
1497780366.12,44925,16.0,74300.3,7.29,3.75,3.25,0,*7A
1497780367.29,44926,16.0,74300.0,7.29,4.57,4.15,0,*7A
1497780368.5,44927,16.0,74300.3,7.31,4.33,3.93,0,*79
1497780369.68,44928,16.0,74302.3,7.29,3.63,3.25,0,*70
1497780370.9,44929,16.0,74300.3,7.27,4.01,3.59,0,*77
1497780372.08,44930,16.0,74294.8,7.25,4.27,3.81,0,*7C
1497780373.26,44931,16.0,74294.8,7.25,3.93,3.55,0,*7C
1497780374.43,44932,16.0,74300.8,7.25,4.41,4.15,0,*74
1497780375.67,44933,16.0,74302.3,7.25,4.05,3.67,0,*77
1497780376.9,44934,16.0,74310.8,7.27,3.71,3.29,0,*7C
1497780378.11,44935,16.0,74308.8,7.21,4.07,3.75,0,*74
1497780379.33,44936,16.0,74302.8,7.25,4.31,4.01,0,*72
1497780380.55,44937,16.0,74306.3,7.25,4.59,4.41,0,*79
1497780381.72,44938,16.0,74300.8,7.21,4.45,4.11,0,*7A
1497780382.94,44939,16.0,74310.0,7.25,3.33,3.07,0,*79
1497780384.15,44940,16.0,74306.8,7.25,3.67,3.29,0,*7A
1497780385.35,44941,16.0,74308.3,7.25,3.59,3.23,0,*7C
1497780386.55,44942,16.0,74302.3,7.21,2.95,2.77,0,*7A
1497780387.76,44943,16.0,74302.8,7.19,3.93,3.63,0,*73
1497780388.96,44944,16.0,74300.0,7.19,4.33,4.07,0,*7C
1497780390.14,44945,16.0,74306.3,7.21,4.33,4.11,0,*71
1497780391.34,44946,16.0,74306.3,7.21,4.89,4.59,0,*7F
1497780392.54,44947,16.0,74302.3,7.19,4.53,4.15,0,*7A
1497780393.75,44948,16.0,74302.5,7.19,4.85,4.57,0,*78
1497780394.92,44949,16.0,74310.0,7.25,4.53,4.23,0,*7E
1497780396.16,44950,16.0,74308.3,7.25,4.93,4.71,0,*7D
1497780397.39,44951,16.0,74304.0,7.27,5.23,5.05,0,*76
1497780398.56,44952,16.0,74300.0,7.25,5.45,5.29,0,*79
1497780399.82,44953,16.0,74304.5,7.27,4.93,4.71,0,*7C
1497780401.05,44954,16.0,74306.3,7.27,4.41,4.05,0,*77
1497780402.27,44955,16.0,74304.8,7.27,3.81,3.53,0,*79
1497780403.44,44956,16.0,74308.5,7.25,4.49,4.23,0,*7B
1497780404.64,44957,16.0,74308.3,7.25,4.63,4.23,0,*72
1497780405.82,44958,16.0,74310.0,7.25,4.53,4.23,0,*7E
1497780407.02,44959,16.0,74306.3,7.27,3.55,3.29,0,*71
1497780408.25,44960,16.0,74304.0,7.25,3.79,3.53,0,*7A
1497780409.45,44961,16.0,74302.5,7.25,4.15,3.79,0,*7E
1497780410.63,44962,16.0,74300.0,7.25,4.15,3.81,0,*7A
1497780411.83,44963,16.0,74306.0,7.25,4.41,4.05,0,*71
1497780413.05,44964,16.0,74304.5,7.21,4.71,4.45,0,*75
1497780414.25,44965,16.0,74300.8,7.21,5.07,4.79,0,*7B
1497780415.51,44966,16.0,74304.8,7.27,4.97,4.59,0,*74
1497780416.74,44967,16.0,74302.8,7.25,4.93,4.71,0,*79
1497780417.95,44968,16.0,74304.5,7.25,4.59,4.15,0,*72
1497780419.14,44969,16.0,74304.3,7.27,4.49,4.11,0,*74
1497780420.36,44970,16.0,74304.5,7.27,4.41,4.01,0,*75
1497780421.59,44971,16.0,74304.3,7.25,3.19,2.81,0,*72
1497780422.83,44972,16.0,74304.3,7.25,3.71,3.41,0,*72
1497780424.01,44973,16.0,74308.3,7.21,4.33,3.85,0,*7E
1497780425.25,44974,16.0,74308.0,7.21,3.79,3.41,0,*78
1497780426.42,44975,16.0,74308.5,7.21,4.23,3.85,0,*79
1497780427.68,44976,16.0,74308.0,7.19,4.97,4.67,0,*75
1497780428.85,44977,16.0,74306.8,7.21,4.49,4.07,0,*7A
1497780430.03,44978,16.0,74306.8,7.21,4.49,4.11,0,*72
1497780431.23,44979,16.0,74306.5,7.21,4.59,4.23,0,*73
1497780432.42,44980,16.0,74306.8,7.21,4.81,4.57,0,*73
1497780433.62,44981,16.0,74304.8,7.21,4.59,4.23,0,*74
1497780434.83,44982,16.0,74306.3,7.25,5.05,4.81,0,*73
1497780436.06,44983,16.0,74304.8,7.25,5.05,4.71,0,*7D
1497780437.26,44984,16.0,74308.5,7.25,4.41,4.01,0,*7C
1497780438.49,44985,16.0,74310.5,7.27,4.11,3.71,0,*7A
1497780439.73,44986,16.0,74302.8,7.27,4.59,4.37,0,*70
1497780440.92,44987,16.0,74308.0,7.27,4.41,4.11,0,*7C
1497780442.13,44988,16.0,74308.3,7.25,4.93,4.85,0,*73
1497780443.33,44989,16.0,74308.5,7.25,5.23,5.05,0,*71
1497780444.6,44990,16.0,74306.3,7.27,5.05,4.71,0,*7D
1497780445.8,44991,16.0,74304.0,7.25,5.51,5.23,0,*79
1497780447.04,44992,16.0,74306.5,7.29,5.01,4.75,0,*71
1497780448.22,44993,16.0,74298.8,7.29,4.57,4.15,0,*74
1497780449.42,44994,16.0,74304.5,7.29,4.63,4.45,0,*71
1497780450.63,44995,16.0,74306.3,7.29,5.11,4.75,0,*77
1497780451.84,44996,16.0,74310.3,7.29,4.89,4.63,0,*73
1497780453.08,44997,16.0,74314.8,7.29,5.01,4.67,0,*77
1497780454.28,44998,16.0,74312.5,7.31,4.53,4.19,0,*7E
1497780455.5,44999,16.0,74310.3,7.31,4.27,3.97,0,*7D
1497780456.71,45000,16.0,74308.3,7.29,5.27,5.07,0,*72
1497780457.88,45001,16.0,74308.5,7.29,4.45,4.19,0,*78
1497780459.13,45002,16.0,74308.3,7.31,3.33,3.03,0,*78
1497780460.34,45003,16.0,74308.5,7.29,4.89,4.79,0,*7C
1497780461.58,45004,16.0,74310.8,7.29,5.01,4.75,0,*76
1497780462.76,45005,16.0,74310.0,7.33,5.37,5.19,0,*72
1497780464.01,45006,16.0,74314.8,7.31,5.81,5.55,0,*76
1497780465.27,45007,16.0,74310.3,7.35,5.73,5.51,0,*7A
1497780466.47,45008,16.0,74308.0,7.35,5.41,5.33,0,*70
1497780467.65,45009,16.0,74308.5,7.37,5.63,5.41,0,*76
1497780468.83,45010,16.0,74314.0,7.37,4.41,4.37,0,*7F
1497780470.08,45011,16.0,74310.0,7.35,5.55,5.73,0,*79
1497780471.34,45012,16.0,74308.0,7.35,4.71,4.75,0,*7A
1497780472.55,45013,16.0,74306.0,7.35,4.11,4.11,0,*7F
1497780473.8,45014,16.0,74310.5,7.35,4.93,5.05,0,*76
1497780475.03,45015,16.0,74314.0,7.35,5.67,5.77,0,*78
1497780476.24,45016,16.0,74308.5,7.39,5.19,5.33,0,*7E
1497780477.41,45017,16.0,74308.5,7.37,5.45,5.49,0,*75
1497780478.64,45018,16.0,74308.5,7.37,5.81,5.77,0,*7F
1497780479.86,45019,16.0,74314.8,7.39,5.67,5.77,0,*78
1497780481.04,45020,16.0,74310.8,7.41,5.71,5.59,0,*76
1497780482.24,45021,16.0,74310.3,7.41,5.11,5.05,0,*78
1497780483.43,45022,16.0,74312.5,7.43,5.29,5.29,0,*7C
1497780484.61,45023,16.0,74314.3,7.41,5.49,5.59,0,*7E
1497780485.83,45024,16.0,74306.5,7.41,5.85,5.93,0,*7F
1497780487.08,45025,16.0,74306.0,7.47,5.05,5.05,0,*7F
1497780488.34,45026,16.0,74304.3,7.47,4.59,4.63,0,*75
1497780489.53,45027,16.0,74306.3,7.47,4.81,4.81,0,*7D
1497780490.73,45028,16.0,74310.0,7.43,5.37,5.37,0,*76
1497780491.93,45029,16.0,74310.3,7.43,5.41,5.49,0,*7F
1497780493.14,45030,16.0,74300.0,7.47,5.27,5.29,0,*75
1497780494.4,45031,16.0,74308.5,7.47,4.75,4.75,0,*7A
1497780495.66,45032,16.0,74312.8,7.47,4.71,4.75,0,*7D
1497780496.92,45033,16.0,74310.5,7.47,4.97,5.05,0,*72
1497780498.14,45034,16.0,74304.5,7.43,4.79,4.81,0,*7C
1497780499.37,45035,16.0,74306.5,7.49,4.81,4.93,0,*73
1497780500.57,45036,16.0,74306.3,7.43,5.11,5.15,0,*7D
1497780501.8,45037,16.0,74308.0,7.47,4.81,4.75,0,*77
1497780503.07,45038,16.0,74304.8,7.47,4.71,4.71,0,*73
1497780504.26,45039,16.0,74306.0,7.47,4.81,4.81,0,*72
1497780505.48,45040,16.0,74310.3,7.47,5.51,5.45,0,*79
1497780506.71,45041,16.0,74310.8,7.47,4.71,4.85,0,*76
1497780507.91,45042,16.0,74304.0,7.49,5.41,5.45,0,*74
1497780509.13,45043,16.0,74310.5,7.47,5.27,5.29,0,*71
1497780510.35,45044,16.0,74314.0,7.49,5.27,5.29,0,*78
1497780511.55,45045,16.0,74314.5,7.49,5.29,5.45,0,*7D
1497780512.75,45046,16.0,74314.3,7.49,4.49,4.33,0,*79
1497780514.01,45047,16.0,74310.0,7.49,5.05,5.05,0,*75
1497780515.21,45048,16.0,74312.5,7.49,4.81,4.81,0,*7A
1497780516.44,45049,16.0,74308.0,7.49,4.11,4.01,0,*7A
1497780517.67,45050,16.0,74304.0,7.47,5.19,5.27,0,*70
1497780518.9,45051,16.0,74308.0,7.49,5.07,5.05,0,*70
1497780520.11,45052,16.0,74308.3,7.49,5.07,5.07,0,*71
1497780521.34,45053,16.0,74296.0,7.49,4.93,4.85,0,*77
1497780522.52,45054,16.0,74302.3,7.51,4.53,4.49,0,*75
1497780523.72,45055,16.0,74308.3,7.49,4.33,4.27,0,*73
1497780524.96,45056,16.0,74310.3,7.47,3.53,3.53,0,*7B
1497780526.19,45057,16.06,74308.8,7.41,4.67,4.67,0,*7C
1497780527.4,45058,16.0,74304.3,7.41,4.71,4.57,0,*77
1497780528.59,45059,16.0,74308.3,7.43,4.81,4.81,0,*70
1497780529.85,45060,16.0,74308.3,7.47,4.75,4.75,0,*7E
1497780531.08,45061,16.0,74308.0,7.41,4.79,4.79,0,*79
1497780532.31,45062,16.0,74308.5,7.47,5.19,5.27,0,*71
1497780533.51,45063,16.0,74308.3,7.47,5.29,5.19,0,*7E
1497780534.7,45064,16.0,74312.0,7.47,5.45,5.33,0,*7B
1497780535.93,45065,16.0,74310.0,7.43,4.59,4.45,0,*72